WXM80 ListenWXM80 Stop

You find our weather info also at:

UK Metoffice

WeatherCloud

Weather Underground

Northeastern Weather Network

AWEKAS

Citizen Weather Observer Program (CWOP)

HAMweather, WeatherForYou, PWS Weather


Weather Underground History page Text

Daily Summary for March 25, 2017 Units:  English    Metric   Both
« Previous Day
Next Day »
Daily Weekly Monthly Yearly Custom
  High: Low: Average:
Temperature: 53.2 °F 39.9 °F 46.9 °F
Dew Point: 42.8 °F 37.4 °F 39.6 °F
Humidity: 91 % 64 % 76 %
Wind Speed: 9.5 mph 0.0 mph 3.3 mph
Wind Gust: 15.0 mph - -
Wind:- - ESE
Pressure: 30.38 in 30.02 in -
Precipitation: 0.00 in    
Historical Graphs
 
 
Tabular Data for March 25, 2017
Time Temperature Dew Point Pressure Wind Wind Speed Wind Gust Humidity Rainfall Rate (Hourly)
00:02 49.2 °F 38.7 °F 30.07 in SSW 6.0 mph 12.0 mph 67 % 0.00 in
00:07 49.2 °F 38.7 °F 30.07 in WSW 4.9 mph 8.0 mph 67 % 0.00 in
00:12 49.3 °F 38.8 °F 30.06 in SSW 6.0 mph 12.0 mph 67 % 0.00 in
00:19 49.4 °F 38.5 °F 30.06 in SW 7.2 mph 10.4 mph 66 % 0.00 in
00:24 49.6 °F 38.7 °F 30.06 in SW 5.1 mph 10.4 mph 66 % 0.00 in
00:29 49.6 °F 38.7 °F 30.06 in West 5.0 mph 9.2 mph 66 % 0.00 in
00:34 49.7 °F 38.4 °F 30.06 in SW 3.4 mph 12.7 mph 65 % 0.00 in
00:40 49.8 °F 38.5 °F 30.05 in SSW 4.0 mph 11.5 mph 65 % 0.00 in
00:45 49.9 °F 38.6 °F 30.05 in SSW 4.9 mph 15.0 mph 65 % 0.00 in
00:50 50.0 °F 38.3 °F 30.05 in SSW 5.2 mph 9.2 mph 64 % 0.00 in
00:55 50.1 °F 38.4 °F 30.05 in SSW 4.3 mph 11.5 mph 64 % 0.00 in
01:00 50.1 °F 38.4 °F 30.04 in SSW 3.5 mph 6.9 mph 64 % 0.00 in
01:05 50.1 °F 38.4 °F 30.05 in SW 3.4 mph 6.9 mph 64 % 0.00 in
01:10 50.1 °F 38.4 °F 30.05 in SW 5.5 mph 9.2 mph 64 % 0.00 in
01:15 50.1 °F 38.4 °F 30.04 in SSW 7.1 mph 11.5 mph 64 % 0.00 in
01:25 50.1 °F 38.4 °F 30.05 in SW 5.7 mph 8.1 mph 64 % 0.00 in
01:30 50.1 °F 38.4 °F 30.05 in SW 5.2 mph 7.0 mph 64 % 0.00 in
01:35 50.0 °F 38.3 °F 30.05 in WSW 2.5 mph 6.0 mph 64 % 0.00 in
01:40 50.1 °F 38.4 °F 30.05 in SW 7.0 mph 11.5 mph 64 % 0.00 in
01:45 50.1 °F 38.4 °F 30.05 in SW 6.4 mph 11.0 mph 64 % 0.00 in
01:50 50.1 °F 38.4 °F 30.05 in WSW 5.3 mph 11.0 mph 64 % 0.00 in
01:55 50.2 °F 38.5 °F 30.05 in SW 7.2 mph 11.5 mph 64 % 0.00 in
02:00 50.3 °F 38.6 °F 30.05 in SW 5.8 mph 11.5 mph 64 % 0.00 in
02:05 50.3 °F 38.6 °F 30.04 in SW 6.8 mph 9.2 mph 64 % 0.00 in
02:10 50.2 °F 38.5 °F 30.05 in SW 4.1 mph 7.0 mph 64 % 0.00 in
02:15 50.2 °F 38.9 °F 30.04 in SW 5.2 mph 6.9 mph 65 % 0.00 in
02:20 50.1 °F 38.8 °F 30.04 in SSW 5.4 mph 10.4 mph 65 % 0.00 in
02:30 50.0 °F 38.7 °F 30.04 in SSW 3.4 mph 6.9 mph 65 % 0.00 in
02:35 49.9 °F 38.6 °F 30.04 in SW 4.6 mph 8.1 mph 65 % 0.00 in
02:40 49.9 °F 39.0 °F 30.04 in SSW 4.0 mph 6.9 mph 66 % 0.00 in
02:45 49.9 °F 39.0 °F 30.04 in SW 1.9 mph 5.8 mph 66 % 0.00 in
02:50 49.8 °F 38.9 °F 30.04 in SW 1.0 mph 5.0 mph 66 % 0.00 in
02:55 49.8 °F 38.9 °F 30.04 in SW 5.9 mph 8.1 mph 66 % 0.00 in
03:00 49.8 °F 38.9 °F 30.04 in South 2.8 mph 8.1 mph 66 % 0.00 in
03:05 49.8 °F 38.9 °F 30.04 in SSW 4.6 mph 8.1 mph 66 % 0.00 in
03:10 49.7 °F 39.2 °F 30.04 in SSW 3.7 mph 5.8 mph 67 % 0.00 in
03:15 49.7 °F 39.2 °F 30.04 in SW 4.6 mph 6.9 mph 67 % 0.00 in
03:20 49.6 °F 39.1 °F 30.04 in SW 3.4 mph 6.9 mph 67 % 0.00 in
03:25 49.6 °F 39.1 °F 30.04 in SSW 2.3 mph 4.0 mph 67 % 0.00 in
03:31 49.6 °F 39.1 °F 30.03 in WNW 4.1 mph 9.2 mph 67 % 0.00 in
03:36 49.5 °F 39.0 °F 30.03 in SW 5.6 mph 10.4 mph 67 % 0.00 in
03:41 49.5 °F 39.0 °F 30.03 in SW 2.1 mph 6.9 mph 67 % 0.00 in
03:46 49.5 °F 39.0 °F 30.03 in South 4.4 mph 5.8 mph 67 % 0.00 in
03:51 49.5 °F 39.4 °F 30.03 in SW 3.5 mph 4.6 mph 68 % 0.00 in
03:56 49.5 °F 39.4 °F 30.03 in SW 1.5 mph 6.9 mph 68 % 0.00 in
04:01 49.5 °F 39.4 °F 30.02 in SW 5.5 mph 7.0 mph 68 % 0.00 in
04:06 49.5 °F 39.4 °F 30.02 in SW 3.3 mph 6.9 mph 68 % 0.00 in
04:11 49.6 °F 39.5 °F 30.02 in SW 2.3 mph 7.0 mph 68 % 0.00 in
04:16 49.7 °F 39.6 °F 30.02 in SW 2.6 mph 3.5 mph 68 % 0.00 in
04:21 49.7 °F 39.6 °F 30.02 in SW 5.6 mph 7.0 mph 68 % 0.00 in
04:26 49.8 °F 39.7 °F 30.02 in SSW 3.9 mph 5.0 mph 68 % 0.00 in
04:31 49.8 °F 39.7 °F 30.03 in WSW 0.2 mph 3.5 mph 68 % 0.00 in
04:36 49.8 °F 39.7 °F 30.03 in SW 4.0 mph 4.6 mph 68 % 0.00 in
04:41 49.8 °F 39.7 °F 30.03 in SW 3.7 mph 8.1 mph 68 % 0.00 in
04:46 49.8 °F 39.7 °F 30.03 in SW 1.3 mph 3.5 mph 68 % 0.00 in
04:52 49.7 °F 39.6 °F 30.03 in SSW 2.1 mph 3.5 mph 68 % 0.00 in
04:57 49.6 °F 39.5 °F 30.03 in SW 2.8 mph 4.6 mph 68 % 0.00 in
05:02 49.6 °F 39.5 °F 30.03 in SW 0.5 mph 3.5 mph 68 % 0.00 in
05:07 49.5 °F 39.4 °F 30.04 in SW 0.6 mph 3.5 mph 68 % 0.00 in
05:12 49.4 °F 39.7 °F 30.04 in WSW 0.1 mph 3.5 mph 69 % 0.00 in
05:17 49.4 °F 39.7 °F 30.05 in Calm   1.2 mph 69 % 0.00 in
05:22 49.3 °F 39.6 °F 30.05 in Calm     69 % 0.00 in
05:27 49.2 °F 39.5 °F 30.05 in WSW 0.8 mph 2.3 mph 69 % 0.00 in
05:32 49.2 °F 39.5 °F 30.05 in SW 1.3 mph 3.5 mph 69 % 0.00 in
05:37 49.1 °F 39.7 °F 30.06 in SW 0.2 mph 1.2 mph 70 % 0.00 in
05:42 49.1 °F 39.7 °F 30.06 in Calm   1.2 mph 70 % 0.00 in
05:47 49.1 °F 39.7 °F 30.06 in SW 0.6 mph 1.2 mph 70 % 0.00 in
05:52 48.9 °F 39.5 °F 30.06 in WSW 0.9 mph 2.3 mph 70 % 0.00 in
05:57 48.6 °F 39.6 °F 30.06 in WSW 0.1 mph 1.2 mph 71 % 0.00 in
06:02 48.3 °F 39.3 °F 30.06 in Calm     71 % 0.00 in
06:07 48.0 °F 39.0 °F 30.07 in Calm     71 % 0.00 in
06:12 47.5 °F 38.2 °F 30.07 in Calm     70 % 0.00 in
06:17 47.1 °F 38.2 °F 30.07 in Calm     71 % 0.00 in
06:22 46.7 °F 38.1 °F 30.07 in Calm     72 % 0.00 in
06:32 45.8 °F 38.0 °F 30.08 in Calm     74 % 0.00 in
06:37 45.5 °F 37.7 °F 30.08 in Calm     74 % 0.00 in
06:42 45.2 °F 37.4 °F 30.09 in Calm     74 % 0.00 in
06:47 44.9 °F 37.8 °F 30.09 in Calm     76 % 0.00 in
06:52 44.6 °F 37.5 °F 30.10 in Calm     76 % 0.00 in
06:57 44.3 °F 37.5 °F 30.10 in Calm     77 % 0.00 in
07:00 44.2 °F 37.4 °F 30.10 in Calm     77 % 0.00 in
07:05 44.1 °F 37.7 °F 30.10 in WSW 0.9 mph 2.3 mph 78 % 0.00 in
07:10 43.9 °F 37.8 °F 30.10 in WSW 0.8 mph 2.0 mph 79 % 0.00 in
07:15 43.8 °F 38.0 °F 30.10 in WSW 0.2 mph 1.2 mph 80 % 0.00 in
07:20 43.7 °F 37.6 °F 30.10 in Calm     79 % 0.00 in
07:25 43.7 °F 37.6 °F 30.10 in Calm     79 % 0.00 in
07:30 43.7 °F 37.6 °F 30.10 in Calm     79 % 0.00 in
07:35 43.8 °F 38.0 °F 30.11 in Calm     80 % 0.00 in
07:40 43.8 °F 38.3 °F 30.10 in Calm     81 % 0.00 in
07:45 43.9 °F 38.4 °F 30.11 in Calm     81 % 0.00 in
07:50 44.0 °F 38.5 °F 30.10 in Calm     81 % 0.00 in
08:00 44.3 °F 38.8 °F 30.10 in Calm     81 % 0.00 in
08:05 44.5 °F 39.0 °F 30.10 in Calm     81 % 0.00 in
08:10 44.8 °F 39.3 °F 30.11 in WSW 0.3 mph 1.2 mph 81 % 0.00 in
08:15 45.1 °F 39.6 °F 30.11 in WSW 0.4 mph 1.2 mph 81 % 0.00 in
08:20 45.5 °F 40.0 °F 30.12 in WSW 0.2 mph 1.2 mph 81 % 0.00 in
08:25 45.8 °F 40.3 °F 30.12 in Calm     81 % 0.00 in
08:27 45.9 °F 40.4 °F 30.12 in Calm   1.0 mph 81 % 0.00 in
08:32 46.3 °F 40.4 °F 30.14 in Calm     80 % 0.00 in
08:37 46.6 °F 40.8 °F 30.14 in Calm   1.0 mph 80 % 0.00 in
08:42 46.9 °F 40.7 °F 30.14 in Calm   1.0 mph 79 % 0.00 in
08:47 47.2 °F 40.4 °F 30.13 in Calm   1.0 mph 77 % 0.00 in
08:52 47.7 °F 40.8 °F 30.13 in WSW 1.0 mph 2.0 mph 77 % 0.00 in
08:58 48.1 °F 40.5 °F 30.13 in NNW 1.0 mph 2.3 mph 75 % 0.00 in
09:03 48.5 °F 40.9 °F 30.13 in North 1.4 mph 3.5 mph 75 % 0.00 in
09:08 48.7 °F 40.8 °F 30.14 in Calm   1.2 mph 74 % 0.00 in
09:13 49.1 °F 40.5 °F 30.14 in Calm     72 % 0.00 in
09:18 49.4 °F 40.4 °F 30.13 in North 0.1 mph 1.2 mph 71 % 0.00 in
09:23 49.6 °F 40.6 °F 30.14 in NNE 1.7 mph 3.5 mph 71 % 0.00 in
09:28 50.0 °F 41.0 °F 30.14 in NNE 2.0 mph 3.5 mph 71 % 0.00 in
09:33 50.2 °F 40.8 °F 30.15 in Calm     70 % 0.00 in
09:38 50.3 °F 40.9 °F 30.16 in Calm     70 % 0.00 in
09:43 50.2 °F 41.5 °F 30.15 in NNE 0.1 mph 1.0 mph 72 % 0.00 in
09:48 50.0 °F 41.0 °F 30.15 in NNE 1.3 mph 2.3 mph 71 % 0.00 in
09:53 49.9 °F 41.2 °F 30.16 in Calm     72 % 0.00 in
09:58 50.0 °F 41.7 °F 30.15 in Calm     73 % 0.00 in
10:03 50.3 °F 41.3 °F 30.15 in Calm     71 % 0.00 in
10:08 50.5 °F 40.7 °F 30.15 in NE 2.4 mph 3.5 mph 69 % 0.00 in
10:13 50.6 °F 40.4 °F 30.13 in NE 0.3 mph 1.2 mph 68 % 0.00 in
10:18 50.8 °F 40.6 °F 30.12 in NE 0.7 mph 1.2 mph 68 % 0.00 in
10:20 50.9 °F 40.3 °F 30.12 in NE 1.4 mph 2.3 mph 67 % 0.00 in
10:30 51.0 °F 40.0 °F 30.13 in NE 0.9 mph 3.5 mph 66 % 0.00 in
10:35 51.0 °F 40.8 °F 30.15 in NE 0.2 mph 1.2 mph 68 % 0.00 in
10:40 50.9 °F 40.3 °F 30.15 in Calm     67 % 0.00 in
10:45 50.9 °F 40.7 °F 30.15 in NE 0.9 mph 2.0 mph 68 % 0.00 in
10:50 51.0 °F 40.8 °F 30.14 in NE 2.3 mph 3.0 mph 68 % 0.00 in
10:55 51.2 °F 41.0 °F 30.13 in North 2.5 mph 4.0 mph 68 % 0.00 in
11:00 51.2 °F 41.4 °F 30.14 in NNE 3.8 mph 5.8 mph 69 % 0.00 in
11:02 51.1 °F 40.9 °F 30.13 in NE 2.9 mph 3.5 mph 68 % 0.00 in
11:07 50.6 °F 40.8 °F 30.15 in North 3.7 mph 5.8 mph 69 % 0.00 in
11:12 49.8 °F 40.0 °F 30.13 in ENE 0.8 mph 4.6 mph 69 % 0.00 in
11:17 49.3 °F 40.3 °F 30.14 in ENE 1.0 mph 2.0 mph 71 % 0.00 in
11:22 48.6 °F 39.3 °F 30.14 in Calm   3.0 mph 70 % 0.00 in
11:27 48.0 °F 39.1 °F 30.14 in Calm   3.0 mph 71 % 0.00 in
11:32 47.8 °F 39.2 °F 30.15 in ESE 1.0 mph 3.0 mph 72 % 0.00 in
11:37 47.8 °F 39.5 °F 30.14 in Calm   2.0 mph 73 % 0.00 in
11:42 47.8 °F 39.9 °F 30.15 in NE 2.0 mph 5.0 mph 74 % 0.00 in
11:47 47.9 °F 39.7 °F 30.15 in NE 2.0 mph 4.0 mph 73 % 0.00 in
11:52 48.0 °F 40.1 °F 30.15 in NNE 2.0 mph 5.0 mph 74 % 0.00 in
11:57 48.2 °F 41.0 °F 30.16 in ENE 1.6 mph 3.5 mph 76 % 0.00 in
12:02 48.4 °F 42.2 °F 30.15 in ENE 3.0 mph 8.0 mph 79 % 0.00 in
12:05 48.3 °F 41.4 °F 30.14 in East 1.8 mph 4.6 mph 77 % 0.00 in
12:10 48.4 °F 41.9 °F 30.14 in ENE 1.5 mph 3.5 mph 78 % 0.00 in
12:15 48.6 °F 42.0 °F 30.15 in ESE 0.1 mph 1.2 mph 78 % 0.00 in
12:20 48.8 °F 41.9 °F 30.16 in ESE 0.9 mph 2.3 mph 77 % 0.00 in
12:22 49.0 °F 42.1 °F 30.16 in ENE 3.1 mph 4.6 mph 77 % 0.00 in
12:27 49.4 °F 41.8 °F 30.15 in ESE 1.3 mph 3.5 mph 75 % 0.00 in
12:32 49.7 °F 42.1 °F 30.16 in East 1.1 mph 2.3 mph 75 % 0.00 in
12:37 50.1 °F 41.8 °F 30.17 in SE 0.3 mph 3.5 mph 73 % 0.00 in
12:42 50.4 °F 41.7 °F 30.17 in ENE 1.9 mph 3.5 mph 72 % 0.00 in
12:47 50.6 °F 41.5 °F 30.16 in East 2.5 mph 5.0 mph 71 % 0.00 in
12:52 50.7 °F 41.3 °F 30.16 in East 2.6 mph 5.0 mph 70 % 0.00 in
12:57 50.8 °F 41.7 °F 30.16 in East 3.2 mph 5.0 mph 71 % 0.00 in
13:02 51.2 °F 42.1 °F 30.16 in East 4.9 mph 6.9 mph 71 % 0.00 in
13:07 51.9 °F 42.8 °F 30.16 in ENE 6.4 mph 9.2 mph 71 % 0.00 in
13:12 52.7 °F 42.8 °F 30.16 in East 6.7 mph 8.0 mph 69 % 0.00 in
13:17 53.2 °F 42.5 °F 30.17 in ENE 5.2 mph 9.0 mph 67 % 0.00 in
13:22 53.2 °F 41.7 °F 30.18 in ENE 4.3 mph 6.9 mph 65 % 0.00 in
13:27 52.7 °F 41.7 °F 30.17 in East 3.9 mph 5.8 mph 66 % 0.00 in
13:32 52.5 °F 41.5 °F 30.18 in East 4.9 mph 5.8 mph 66 % 0.00 in
13:37 52.4 °F 41.0 °F 30.18 in East 5.0 mph 6.9 mph 65 % 0.00 in
13:42 52.3 °F 41.3 °F 30.17 in ENE 4.5 mph 6.9 mph 66 % 0.00 in
13:52 52.6 °F 41.6 °F 30.18 in ENE 6.0 mph 9.0 mph 66 % 0.00 in
13:57 52.6 °F 41.9 °F 30.18 in ENE 5.4 mph 8.1 mph 67 % 0.00 in
14:03 52.8 °F 41.7 °F 30.17 in ENE 7.8 mph 10.4 mph 66 % 0.00 in
14:08 53.0 °F 41.9 °F 30.17 in ENE 5.9 mph 6.9 mph 66 % 0.00 in
14:13 52.9 °F 41.8 °F 30.17 in East 4.5 mph 8.1 mph 66 % 0.00 in
14:21 52.8 °F 41.7 °F 30.17 in ENE 7.0 mph 7.0 mph 66 % 0.00 in
14:26 52.0 °F 40.6 °F 30.17 in ENE 7.5 mph 11.5 mph 65 % 0.00 in
14:31 51.0 °F 40.4 °F 30.18 in ENE 3.6 mph 6.9 mph 67 % 0.00 in
14:36 50.0 °F 40.2 °F 30.18 in ENE 2.0 mph 3.5 mph 69 % 0.00 in
14:41 49.5 °F 40.1 °F 30.18 in East 3.8 mph 7.0 mph 70 % 0.00 in
14:46 49.0 °F 40.0 °F 30.18 in East 5.1 mph 5.1 mph 71 % 0.00 in
14:51 48.7 °F 40.4 °F 30.19 in East 5.1 mph 6.9 mph 73 % 0.00 in
14:56 48.4 °F 40.1 °F 30.20 in ENE 4.6 mph 5.0 mph 73 % 0.00 in
15:01 48.3 °F 40.4 °F 30.20 in East 5.7 mph 6.0 mph 74 % 0.00 in
15:06 48.3 °F 40.4 °F 30.18 in East 7.8 mph 10.0 mph 74 % 0.00 in
15:11 48.7 °F 40.8 °F 30.18 in East 7.2 mph 8.1 mph 74 % 0.00 in
15:16 49.2 °F 40.9 °F 30.18 in East 7.0 mph 9.2 mph 73 % 0.00 in
15:21 49.6 °F 40.9 °F 30.18 in East 6.3 mph 9.2 mph 72 % 0.00 in
15:26 49.9 °F 41.2 °F 30.17 in East 7.9 mph 10.4 mph 72 % 0.00 in
15:31 50.3 °F 41.3 °F 30.19 in ENE 6.4 mph 8.1 mph 71 % 0.00 in
15:36 50.4 °F 41.3 °F 30.19 in East 5.7 mph 9.0 mph 71 % 0.00 in
15:41 50.3 °F 41.3 °F 30.21 in ENE 5.7 mph 8.1 mph 71 % 0.00 in
15:46 50.1 °F 41.1 °F 30.20 in East 5.3 mph 8.1 mph 71 % 0.00 in
15:51 49.8 °F 41.1 °F 30.21 in ENE 4.5 mph 7.0 mph 72 % 0.00 in
15:56 49.2 °F 40.6 °F 30.21 in East 4.1 mph 6.9 mph 72 % 0.00 in
16:01 48.8 °F 40.5 °F 30.22 in ENE 3.4 mph 4.6 mph 73 % 0.00 in
16:07 48.4 °F 40.5 °F 30.22 in ENE 6.1 mph 10.0 mph 74 % 0.00 in
16:12 47.8 °F 40.3 °F 30.22 in NE 7.6 mph 11.5 mph 75 % 0.00 in
16:17 47.3 °F 40.5 °F 30.22 in ENE 6.9 mph 11.0 mph 77 % 0.00 in
16:22 47.0 °F 40.5 °F 30.24 in ENE 7.4 mph 10.4 mph 78 % 0.00 in
16:27 46.7 °F 40.2 °F 30.25 in ENE 5.9 mph 9.2 mph 78 % 0.00 in
16:32 46.4 °F 40.2 °F 30.25 in NE 8.7 mph 12.0 mph 79 % 0.00 in
16:37 45.8 °F 40.0 °F 30.25 in NE 9.5 mph 13.8 mph 80 % 0.00 in
16:42 45.4 °F 39.9 °F 30.25 in ENE 8.0 mph 11.5 mph 81 % 0.00 in
16:52 44.7 °F 39.5 °F 30.26 in ENE 7.1 mph 9.2 mph 82 % 0.00 in
16:57 44.4 °F 39.6 °F 30.27 in ENE 9.5 mph 13.8 mph 83 % 0.00 in
17:02 44.2 °F 39.7 °F 30.26 in ENE 9.2 mph 15.0 mph 84 % 0.00 in
17:07 44.1 °F 39.6 °F 30.24 in NE 8.6 mph 11.0 mph 84 % 0.00 in
17:12 44.0 °F 39.5 °F 30.25 in ENE 5.9 mph 9.2 mph 84 % 0.00 in
17:17 43.9 °F 39.7 °F 30.25 in ENE 6.2 mph 10.4 mph 85 % 0.00 in
17:22 43.8 °F 39.6 °F 30.25 in East 5.8 mph 10.4 mph 85 % 0.00 in
17:27 43.7 °F 39.5 °F 30.25 in East 6.8 mph 10.0 mph 85 % 0.00 in
17:32 43.7 °F 39.8 °F 30.25 in East 6.9 mph 8.1 mph 86 % 0.00 in
17:37 43.7 °F 39.8 °F 30.25 in East 7.7 mph 9.2 mph 86 % 0.00 in
17:42 43.7 °F 39.8 °F 30.24 in East 7.6 mph 9.2 mph 86 % 0.00 in
17:52 43.9 °F 40.0 °F 30.23 in East 5.3 mph 6.9 mph 86 % 0.00 in
17:57 44.0 °F 39.8 °F 30.23 in East 3.2 mph 6.9 mph 85 % 0.00 in
18:02 44.1 °F 39.9 °F 30.23 in ESE 1.5 mph 3.5 mph 85 % 0.00 in
18:07 44.1 °F 39.9 °F 30.23 in SE 1.4 mph 3.5 mph 85 % 0.00 in
18:12 44.2 °F 40.0 °F 30.23 in SE 0.4 mph 2.3 mph 85 % 0.00 in
18:17 44.2 °F 40.0 °F 30.23 in SE 0.8 mph 2.3 mph 85 % 0.00 in
18:22 44.3 °F 39.8 °F 30.23 in Calm     84 % 0.00 in
18:27 44.4 °F 39.9 °F 30.24 in Calm     84 % 0.00 in
18:32 44.4 °F 39.9 °F 30.25 in NNE 2.2 mph 3.5 mph 84 % 0.00 in
18:37 44.5 °F 40.0 °F 30.25 in North 3.4 mph 8.0 mph 84 % 0.00 in
18:42 44.3 °F 39.8 °F 30.25 in NNE 5.0 mph 6.0 mph 84 % 0.00 in
18:47 44.2 °F 39.7 °F 30.25 in NNE 3.0 mph 7.0 mph 84 % 0.00 in
18:52 43.9 °F 39.4 °F 30.26 in NNE 6.0 mph 8.0 mph 84 % 0.00 in
18:57 43.6 °F 39.4 °F 30.26 in NNE 3.7 mph 3.7 mph 85 % 0.00 in
19:02 43.4 °F 39.2 °F 30.26 in NE 2.7 mph 4.6 mph 85 % 0.00 in
19:07 43.1 °F 39.2 °F 30.28 in NE 3.0 mph 6.0 mph 86 % 0.00 in
19:12 42.7 °F 39.1 °F 30.28 in NNE 7.0 mph 10.0 mph 87 % 0.00 in
19:17 42.4 °F 38.8 °F 30.28 in NNE 4.3 mph 8.1 mph 87 % 0.00 in
19:22 42.2 °F 38.9 °F 30.29 in NE 2.0 mph 5.8 mph 88 % 0.00 in
19:27 42.0 °F 38.7 °F 30.30 in NNE 3.0 mph 7.0 mph 88 % 0.00 in
19:32 41.9 °F 38.9 °F 30.30 in NNE 3.0 mph 7.0 mph 89 % 0.00 in
19:37 41.8 °F 38.8 °F 30.30 in NE 2.0 mph 7.0 mph 89 % 0.00 in
19:42 41.8 °F 39.1 °F 30.31 in NE 3.0 mph 6.0 mph 90 % 0.00 in
19:47 41.7 °F 39.0 °F 30.31 in NE 5.0 mph 8.0 mph 90 % 0.00 in
19:52 41.7 °F 39.0 °F 30.32 in NE 5.0 mph 12.0 mph 90 % 0.00 in
19:58 41.7 °F 39.0 °F 30.32 in NNE 5.1 mph 9.2 mph 90 % 0.00 in
20:03 41.7 °F 39.3 °F 30.33 in NNE 5.0 mph 9.2 mph 91 % 0.00 in
20:08 41.7 °F 39.3 °F 30.33 in NE 3.6 mph 6.9 mph 91 % 0.00 in
20:13 41.7 °F 39.0 °F 30.32 in ENE 3.7 mph 8.0 mph 90 % 0.00 in
20:18 41.6 °F 38.9 °F 30.32 in ENE 3.8 mph 4.0 mph 90 % 0.00 in
20:22 41.6 °F 38.9 °F 30.32 in ENE 2.6 mph 4.6 mph 90 % 0.00 in
20:28 41.7 °F 39.0 °F 30.33 in ENE 4.0 mph 6.9 mph 90 % 0.00 in
20:33 41.6 °F 38.9 °F 30.32 in East 1.9 mph 5.0 mph 90 % 0.00 in
20:38 41.6 °F 38.9 °F 30.31 in SSE 2.6 mph 4.6 mph 90 % 0.00 in
20:43 41.7 °F 39.0 °F 30.33 in NE 3.0 mph 3.5 mph 90 % 0.00 in
20:48 41.8 °F 39.1 °F 30.34 in ENE 2.4 mph 3.5 mph 90 % 0.00 in
20:53 41.9 °F 39.2 °F 30.34 in ENE 5.0 mph 7.0 mph 90 % 0.00 in
20:58 41.8 °F 39.1 °F 30.34 in ENE 2.3 mph 4.6 mph 90 % 0.00 in
21:03 41.7 °F 39.0 °F 30.34 in East 2.6 mph 5.0 mph 90 % 0.00 in
21:08 41.5 °F 38.8 °F 30.35 in East 2.0 mph 4.6 mph 90 % 0.00 in
21:13 41.4 °F 38.7 °F 30.35 in ENE 2.3 mph 4.6 mph 90 % 0.00 in
21:18 41.3 °F 38.6 °F 30.35 in ENE 3.8 mph 5.0 mph 90 % 0.00 in
21:23 41.2 °F 38.5 °F 30.35 in ENE 2.7 mph 4.0 mph 90 % 0.00 in
21:28 41.1 °F 38.4 °F 30.35 in ENE 3.1 mph 6.9 mph 90 % 0.00 in
21:34 41.0 °F 38.3 °F 30.35 in ENE 3.1 mph 5.0 mph 90 % 0.00 in
21:39 40.9 °F 38.2 °F 30.35 in ENE 6.7 mph 9.0 mph 90 % 0.00 in
21:44 40.8 °F 38.1 °F 30.35 in ENE 4.7 mph 7.0 mph 90 % 0.00 in
21:49 40.8 °F 38.4 °F 30.35 in ENE 5.7 mph 8.1 mph 91 % 0.00 in
21:54 40.7 °F 38.3 °F 30.35 in ENE 3.9 mph 8.1 mph 91 % 0.00 in
21:59 40.7 °F 38.3 °F 30.36 in ENE 4.4 mph 8.1 mph 91 % 0.00 in
22:04 40.7 °F 38.3 °F 30.36 in ENE 3.3 mph 5.0 mph 91 % 0.00 in
22:09 40.7 °F 38.3 °F 30.36 in NE 5.2 mph 9.2 mph 91 % 0.00 in
22:10 40.7 °F 38.3 °F 30.36 in ENE 5.5 mph 9.2 mph 91 % 0.00 in
22:15 40.6 °F 38.2 °F 30.36 in NNE 3.0 mph 5.0 mph 91 % 0.00 in
22:20 40.7 °F 38.3 °F 30.36 in ENE 4.6 mph 8.1 mph 91 % 0.00 in
22:25 40.6 °F 37.9 °F 30.36 in ENE 3.7 mph 8.1 mph 90 % 0.00 in
22:30 40.6 °F 37.9 °F 30.36 in NE 3.6 mph 8.1 mph 90 % 0.00 in
22:35 40.5 °F 37.8 °F 30.36 in ENE 4.3 mph 8.1 mph 90 % 0.00 in
22:40 40.5 °F 37.8 °F 30.36 in NE 3.9 mph 8.1 mph 90 % 0.00 in
22:50 40.4 °F 37.7 °F 30.36 in ENE 6.7 mph 10.4 mph 90 % 0.00 in
22:55 40.3 °F 37.6 °F 30.36 in NE 4.5 mph 5.0 mph 90 % 0.00 in
23:00 40.2 °F 37.8 °F 30.36 in ENE 6.6 mph 10.4 mph 91 % 0.00 in
23:05 40.2 °F 37.8 °F 30.36 in ENE 4.6 mph 8.1 mph 91 % 0.00 in
23:10 40.1 °F 37.7 °F 30.37 in ENE 3.9 mph 6.9 mph 91 % 0.00 in
23:15 40.1 °F 37.7 °F 30.37 in ENE 4.3 mph 6.9 mph 91 % 0.00 in
23:20 40.1 °F 37.7 °F 30.37 in ENE 4.9 mph 5.8 mph 91 % 0.00 in
23:26 40.0 °F 37.6 °F 30.37 in NE 4.7 mph 6.9 mph 91 % 0.00 in
23:31 40.0 °F 37.6 °F 30.37 in ENE 5.3 mph 8.1 mph 91 % 0.00 in
23:36 40.0 °F 37.6 °F 30.37 in ENE 3.6 mph 8.1 mph 91 % 0.00 in
23:41 39.9 °F 37.5 °F 30.37 in NNE 2.6 mph 4.6 mph 91 % 0.00 in
23:46 39.9 °F 37.5 °F 30.37 in NE 2.4 mph 5.8 mph 91 % 0.00 in
23:51 39.9 °F 37.5 °F 30.37 in NNE 3.1 mph 4.6 mph 91 % 0.00 in
23:56 39.9 °F 37.5 °F 30.38 in NNE 4.2 mph 6.9 mph 91 % 0.00 in
Crab Meadow Weather
Compliments of Weather Underground - 3 mb

Script developed by  Jim McMurry - jmcmurry@mwt.net Adapted for the template by  Wim van der Kuil - Leuven-Template.eu

Weather Terms: Enhanced Fujita Scale or EF-Scale - A scale of wind damage intensity in which wind speeds are inferred from analysis of wind damage. All tornadoes and most other windstorms are assigned a numerical rating from this scale according to the most intense damage caused by the storm. EF0 (weak) 6585 mph, light damage EF1 (weak) 86110 mph, moderate damage EF2 (strong) 111135 mph, considerable damage EF3 (strong) 136165 mph, severe damage EF4 (violent) 166200 mph, devastating damage EF5 (violent) >200 mph, incredible damage.